DLH1195 EDDF-LIRF

Flight info

Callsign DLH1195
Flight time N/A
Altitude 35000
Route CINDY8S/18 CINDY Z74 LAMPU DCT NOMBO Y161 RIDAR DCT KONIN DCT BERAS DCT LIKDA DCT BAKOR DCT VESAL DCT VIC DCT KOPER DCT SUKOM DCT GAVRA DCT RITEB
Aircraft A321/M-SDE3FGHIRWY/LB1

Departure

Time 2026-05-05 17:42
Airport Frankfurt Main Airport (EDDF)

Arrival

Time N/A
Airport Rome–Fiumicino Leonardo da Vinci International Airport (LIRF)
Time Latitude Longitude Altitude Speed Heading
2026-05-05 17:02 50.04705 8.56841 356 ft 0 kts 294°
2026-05-05 17:26 50.04705 8.56842 356 ft 1 kts 294°
2026-05-05 17:26 50.04695 8.56876 364 ft 4 kts 294°
2026-05-05 17:26 50.04685 8.56911 362 ft 4 kts 290°
2026-05-05 17:27 50.04682 8.56946 361 ft 4 kts 233°
2026-05-05 17:27 50.04702 8.56969 363 ft 2 kts 205°
2026-05-05 17:27 50.04707 8.56973 361 ft 0 kts 205°
2026-05-05 17:30 50.04707 8.56972 361 ft 1 kts 205°
2026-05-05 17:30 50.04690 8.56960 364 ft 5 kts 205°
2026-05-05 17:30 50.04648 8.56930 361 ft 7 kts 205°
2026-05-05 17:31 50.04600 8.56908 356 ft 8 kts 192°
2026-05-05 17:31 50.04557 8.56893 360 ft 4 kts 194°
2026-05-05 17:31 50.04517 8.56878 359 ft 8 kts 193°
2026-05-05 17:31 50.04455 8.56829 363 ft 12 kts 236°
2026-05-05 17:32 50.04416 8.56682 359 ft 17 kts 249°
2026-05-05 17:32 50.04372 8.56499 359 ft 20 kts 249°
2026-05-05 17:32 50.04321 8.56284 363 ft 21 kts 250°
2026-05-05 17:32 50.04270 8.56072 358 ft 21 kts 249°
2026-05-05 17:33 50.04219 8.55864 361 ft 21 kts 249°
2026-05-05 17:33 50.04172 8.55659 352 ft 20 kts 250°
2026-05-05 17:33 50.04123 8.55452 359 ft 20 kts 250°
2026-05-05 17:33 50.04076 8.55253 358 ft 19 kts 249°
2026-05-05 17:34 50.04030 8.55062 357 ft 19 kts 250°
2026-05-05 17:34 50.03983 8.54867 353 ft 20 kts 249°
2026-05-05 17:34 50.03932 8.54657 357 ft 21 kts 249°
2026-05-05 17:34 50.03878 8.54435 352 ft 23 kts 248°
2026-05-05 17:35 50.03800 8.54220 356 ft 23 kts 247°
2026-05-05 17:35 50.03742 8.53987 352 ft 23 kts 249°
2026-05-05 17:35 50.03684 8.53748 353 ft 24 kts 249°
2026-05-05 17:35 50.03624 8.53503 341 ft 24 kts 249°
2026-05-05 17:36 50.03564 8.53254 337 ft 25 kts 250°
2026-05-05 17:36 50.03513 8.53041 336 ft 12 kts 250°
2026-05-05 17:36 50.03486 8.52926 335 ft 11 kts 248°
2026-05-05 17:36 50.03466 8.52855 333 ft 0 kts 246°
2026-05-05 17:38 50.03463 8.52844 337 ft 2 kts 246°
2026-05-05 17:38 50.03456 8.52817 336 ft 3 kts 246°
2026-05-05 17:39 50.03453 8.52809 336 ft 1 kts 246°
2026-05-05 17:39 50.03449 8.52794 333 ft 2 kts 246°
2026-05-05 17:39 50.03442 8.52768 334 ft 4 kts 246°
2026-05-05 17:39 50.03432 8.52726 331 ft 0 kts 250°
2026-05-05 17:40 50.03431 8.52725 331 ft 1 kts 250°
2026-05-05 17:40 50.03424 8.52696 333 ft 5 kts 250°
2026-05-05 17:40 50.03407 8.52634 333 ft 8 kts 237°
2026-05-05 17:40 50.03359 8.52596 335 ft 8 kts 185°
2026-05-05 17:41 50.03342 8.52596 335 ft 0 kts 180°
2026-05-05 17:41 50.03332 8.52596 335 ft 8 kts 180°
2026-05-05 17:42 50.02984 8.52598 336 ft 93 kts 179°
2026-05-05 17:42 50.02090 8.52604 336 ft 161 kts 180°
2026-05-05 17:42 50.00852 8.52619 882 ft 179 kts 180°
2026-05-05 17:42 49.99614 8.52643 1896 ft 178 kts 182°
2026-05-05 17:43 49.98363 8.52653 2346 ft 187 kts 182°
2026-05-05 17:43 49.97020 8.53066 2504 ft 212 kts 156°
2026-05-05 17:43 49.95892 8.54688 2702 ft 234 kts 122°
2026-05-05 17:43 49.95089 8.56920 3298 ft 238 kts 121°
2026-05-05 17:44 49.94322 8.59200 4006 ft 240 kts 112°
2026-05-05 17:44 49.93990 8.61792 4486 ft 256 kts 95°
2026-05-05 17:44 49.93877 8.64655 4845 ft 273 kts 95°
2026-05-05 17:44 49.93569 8.67572 5456 ft 275 kts 111°
2026-05-05 17:45 49.92697 8.70200 6161 ft 274 kts 130°
2026-05-05 17:45 49.91344 8.72237 6817 ft 272 kts 147°
2026-05-05 17:45 49.89806 8.73915 7474 ft 275 kts 146°
2026-05-05 17:45 49.88380 8.75973 8142 ft 281 kts 131°
2026-05-05 17:46 49.87313 8.78540 8793 ft 286 kts 121°
2026-05-05 17:46 49.86357 8.81212 9458 ft 289 kts 121°
2026-05-05 17:46 49.85375 8.83948 9978 ft 297 kts 122°
2026-05-05 17:46 49.84330 8.86837 10115 ft 318 kts 122°
2026-05-05 17:47 49.83209 8.89915 10240 ft 337 kts 122°
2026-05-05 17:47 49.82037 8.93133 10594 ft 347 kts 122°
2026-05-05 17:47 49.80846 8.96408 11110 ft 351 kts 122°
2026-05-05 17:47 49.79642 8.99717 11647 ft 355 kts 122°
2026-05-05 17:48 49.78820 9.01975 12038 ft 357 kts 122°
2026-05-05 17:48 49.77404 9.05113 12563 ft 356 kts 136°
2026-05-05 17:48 49.75627 9.07808 13093 ft 359 kts 139°
2026-05-05 17:48 49.73821 9.10493 13645 ft 362 kts 139°
2026-05-05 17:49 49.71992 9.13202 14158 ft 365 kts 139°
2026-05-05 17:49 49.70155 9.15919 14684 ft 367 kts 139°
2026-05-05 17:49 49.68311 9.18640 15200 ft 368 kts 139°
2026-05-05 17:49 49.66475 9.21350 15727 ft 370 kts 139°
2026-05-05 17:50 49.64590 9.24141 16247 ft 372 kts 139°
2026-05-05 17:50 49.62747 9.26874 16744 ft 373 kts 139°
2026-05-05 17:50 49.60841 9.29692 17227 ft 375 kts 139°
2026-05-05 17:50 49.58982 9.32432 17734 ft 377 kts 139°